Flag for Western Sahara Weather past 2 weeks in El Aaiún, Western Sahara

Now
82 °F

Warm.


Feels Like: 83 °F
Forecast: N/A
Wind: 24 mph from North

Location: Laayoune/Hassan Isl

Current Time: Jul 22, 2014 at 7:57:16 PM

Latest Report: Jul 22, 2014 at 5:00 PM


Visibility: 5 mi

Pressure: 29.95 "Hg

Humidity: 51%

Dew point: 63 °F

Location of El AaiúnLocation

Historic Weather in El Aaiún — Graph

°F

El Aaiún temperature yesterday

Maximum temperature yesterday: 84 °F (at 2:00 PM)
Minimum temperature yesterday: 68 °F (at 5:00 AM)
Average temperature yesterday: 75 °F

Past Weeks' High & Low Weather Summary

 TemperatureHumidityPressure
High88 °F (Jul 10, 3:00 PM)94% (Jul 10, 12:02 AM)30.12 "Hg (Jul 10, 12:02 AM)
Low66 °F (Jul 14, 12:00 AM)40% (Jul 10, 3:00 PM)29.92 "Hg (Jul 8, 4:00 PM)
Average74 °F69%30.02 "Hg
* Reported Jul 7 5:00 PM — Jul 22 5:00 PM, El Aaiún, Weather by CustomWeather, © 2014

Note: Actual official high and low records may vary slightly from our data, if they occured in-between our weather recording intervals... More about our weather records

Advertising

El Aaiún weather history for previous 24 hours

 ConditionsComfort  
Time TempWeatherWind HumidityBarometerVisibility
5:00 PM
Jul 22
82 °FWarm.24 mph51%29.95 "Hg5 mi
4:00 PM82 °FSunny.25 mph48%29.95 "Hg10 mi
3:00 PM82 °FSunny.23 mph48%29.95 "Hg10 mi
2:00 PM82 °FSunny.21 mph51%29.95 "Hg10 mi
1:00 PM82 °FSunny.21 mph45%29.98 "Hg10 mi
12:00 PM81 °FSunny.20 mph51%30.01 "Hg10 mi
11:00 AM79 °FPassing clouds.21 mph54%30.01 "HgN/A
10:00 AM75 °FMild.22 mph61%30.01 "HgN/A
9:00 AM72 °FScattered clouds.20 mph69%30.01 "HgN/A
8:00 AM70 °FPassing clouds.21 mph73%30.01 "HgN/A
7:00 AM68 °FOvercast.18 mph78%30.01 "HgN/A
6:00 AM68 °FOvercast.21 mph78%30.01 "HgN/A
5:00 AM68 °FPassing clouds.17 mph78%29.98 "HgN/A
4:00 AM68 °FOvercast.20 mph78%29.98 "HgN/A
3:00 AM70 °FPassing clouds.17 mph73%29.98 "HgN/A
2:00 AM70 °FPassing clouds.21 mph78%29.98 "HgN/A
1:00 AM68 °FPassing clouds.15 mph83%30.01 "HgN/A
12:00 AM68 °FMild.17 mph78%30.04 "HgN/A
11:00 PM
Jul 21
70 °FPassing clouds.18 mph78%30.04 "HgN/A
10:00 PM70 °FPassing clouds.21 mph78%30.04 "HgN/A
9:00 PM72 °FScattered clouds.21 mph73%30.01 "Hg5 mi
8:00 PM73 °FPassing clouds.21 mph69%30.01 "HgN/A
7:00 PM77 °FSunny.22 mph61%30.01 "Hg10 mi
Weather by CustomWeather, © 2014

See weather overviewHow to use our weather pages